This is the latest recevied weather packets stored in our database for station/object HP1CDW-10. If no packets are shown the sender has not sent any weather packets the latest 10 day(s).
| Time | Temp. | Humidity | Pressure | Rain* | Wind** | Luminosity | Snow |
|---|---|---|---|---|---|---|---|
| 1777710375 | 34.44° C | 50% | 1000.5 hPa | - | - | - | - |
| 1777709770 | 33.33° C | 53% | 1000.6 hPa | - | - | - | - |
| 1777708561 | 33.89° C | 51% | 1001 hPa | - | - | - | - |
| 1777707956 | 33.33° C | 53% | 1001.3 hPa | - | - | - | - |
| 1777707351 | 33.33° C | 53% | 1001.5 hPa | - | - | - | - |
| 1777706746 | 33.33° C | 53% | 1001.6 hPa | - | - | - | - |
| 1777706141 | 33.33° C | 53% | 1001.6 hPa | - | - | - | - |
| 1777705537 | 33.33° C | 54% | 1001.7 hPa | - | - | - | - |
| 1777704932 | 33.33° C | 54% | 1001.9 hPa | - | - | - | - |
| 1777704327 | 33.89° C | 52% | 1001.8 hPa | - | - | - | - |
| 1777703722 | 33.89° C | 52% | 1002 hPa | - | - | - | - |
| 1777703118 | 34.44° C | 50% | 1001.9 hPa | - | - | - | - |
| 1777702513 | 35° C | 50% | 1002.1 hPa | - | - | - | - |
| 1777701908 | 35° C | 50% | 1002.2 hPa | - | - | - | - |
| 1777701303 | 35° C | 50% | 1002.2 hPa | - | - | - | - |
| 1777699489 | 35° C | 49% | 1002.6 hPa | - | - | - | - |
| 1777698884 | 35° C | 49% | 1002.3 hPa | - | - | - | - |
| 1777698279 | 35° C | 49% | 1002.1 hPa | - | - | - | - |
| 1777697674 | 35° C | 49% | 1001.7 hPa | - | - | - | - |
| 1777697070 | 35° C | 48% | 1001.6 hPa | - | - | - | - |
| 1777696465 | 35° C | 48% | 1002.1 hPa | - | - | - | - |
| 1777695860 | 35° C | 49% | 1002 hPa | - | - | - | - |
| 1777695255 | 35° C | 49% | 1002.2 hPa | - | - | - | - |
| 1777694651 | 35° C | 49% | 1002.6 hPa | - | - | - | - |
| 1777694046 | 35° C | 49% | 1002.6 hPa | - | - | - | - |
* Rain since midnight (hover to see other rain measurements)
** Current wind speed in m/s (hover to see current wind gust speed)